Regional Weather Roundup
Issued by NWS

Home | Current Version | Previous Version | Text Only | Print | Product List | Glossary On
Versions: 1 2 3 4 5 6 7 8 9 10 11 12 13 14 15 16 17 18 19 20 21 22 23 24 25 26 27 28 29 30 31 32 33 34 35 36 37 38 39 40 41 42 43 44 45 46 47 48 49 50
000
ASUS45 KBOI 051010
RWRID

IDAHO REGIONAL WEATHER ROUNDUP
NATIONAL WEATHER SERVICE BOISE ID
400 AM MDT WED AUG 05 2015

NOTE: "FAIR" INDICATES FEW OR NO CLOUDS BELOW 12000 FEET
WITH NO SIGNIFICANT WEATHER AND/OR OBSTRUCTIONS TO VISIBILITY

IDZ012-014-051100-
SOUTHWEST IDAHO


CITY           SKY/WX    TMP DP  RH WIND       PRES   REMARKS
BOISE          CLOUDY    70  58  65 E5        29.90F
CALDWELL       CLOUDY    72  50  46 SE8       29.90F
MOUNTAIN HOME  CLOUDY    67  59  73 VRB3      29.91S
$$

IDZ016-017-051100-
SOUTHCENTRAL IDAHO


CITY           SKY/WX    TMP DP  RH WIND       PRES   REMARKS
BURLEY         MOCLDY    64  51  62 N5        30.01R
JEROME         MOCLDY    61  53  75 N8        30.00F
TWIN FALLS     MOCLDY    60  52  74 E3        29.99F
$$

IDZ019>023-051100-
SOUTHEAST IDAHO


CITY           SKY/WX    TMP DP  RH WIND       PRES   REMARKS
IDAHO FALLS    LGT RAIN  59  50  72 NW5       30.06R
POCATELLO      PTCLDY    64  50  60 SW5       30.03R
REXBURG        CLOUDY    57  49  74 CALM      30.05R
$$

IDZ006-010-011-018-031-032-051100-
CENTRAL IDAHO MOUNTAINS


CITY           SKY/WX    TMP DP  RH WIND       PRES   REMARKS
MCCALL         CLOUDY    55  42  61 CALM      30.05R
HAILEY         CLOUDY    61  52  72 N8        30.13F
STANLEY          N/A     52  33  48 CALM      30.16R
SALMON         MOCLDY    55  43  62 CALM      29.97S
CHALLIS        CLOUDY    60  39  45 W5        30.03R
$$

IDZ002-004-006-007-026-051100-
NORTHERN IDAHO


CITY           SKY/WX    TMP DP  RH WIND       PRES   REMARKS
LEWISTON       MOCLDY    73  40  30 W3        29.86R
LOWELL           N/A     62  56  80 CALM      29.91S
COEUR D`ALENE  CLOUDY    68  43  40 SE14      29.84S
MULLAN PASS    MOCLDY    58  35  42 SW6       30.05S
$$


USA.gov is the U.S. government's official web portal to all federal, state and local government web resources and services.